Starlink 31546

operational
NORAD ID: 59470 Int'l Des: 2024-068 Owner: SPXS Country: US Constellation: starlink
LEOCIRCULAR

About Starlink 31546

Description loading...

Live Position

Loading 3D Globe...

Upcoming Passes

Altitude History

Altitude vs Time

uPlot chart will show altitude changes over time

Two-Line Element Set

1 59470U 24068R 25305.59196327 .00001420 00000-0 61136-4 0 9990
2 59470 43.0000 34.3342 0001374 270.9911 89.0783 15.27576522 88976
Epoch: Nov 1, 2025 • Age: 13 hours

Current Status

Altitude 482.4 km
Velocity 7.63 km/s
Sub-Earth Point 5.27°N, 46.54°W
Launch Date Apr 10, 2024
Age 1.5 years
Type internet

Technical Details

Classification Payload
Mass 730.00 kg
Dry Mass 700.00 kg
Total Mass 730.00 kg
Length 0.30 m
Diameter 4.10 m
Span 29.00 m
Shape Box + pan
Manufacturer SPXS
Bus Type Starlink V2M
Phase Status In Orbit
Owner/State SPXS/US

Large Constellations

Loading constellations...